TIANYAN 01

Last updated on Sun Aug 31 2025 00:03:10 GMT+0000 (Coordinated Universal Time)

1 44881U 19093C 25242.25665086 .00001399 00000+0 16702-3 0 9990 2 44881 97.7872 316.1848 0012915 328.6472 31.3972 14.85748240308209
UTC large
Height (km)
Speed (km/s)
/
Latitude / Longitude
Inclination (degrees)
Orbital Period (minutes)
Azimuth
Elevation
Range (km)
Doppler Factor

Next 0 passes for location: London (51.5072 / 0.1276)

Sorry there are no passes over London.